カタログに戻る

SL-8 DEB

運用中PO
NORAD 25057·DEBRIS·🇷🇺 Russia

打ち上げ Apr 20, 1990 から Plesetsk Cosmodrome

Loading…

次のパス (今後24時間)

TLE

最新Source: Space-Track

元期: Sep 14, 2026, 14:17 UTC

1 25057U 90036C   26257.59527867  .00000269  00000-0  22601-3 0  9999
2 25057  82.9380 299.3544 0018270 284.7843 228.6631 13.84431651723636

AllMySatでSL-8 DEBをリアルタイム追跡

Download on the App Store